Location: ?????????
(53.2086°N, 54.0693°E)
Time: 19:11:26
(UTC+00:00)

USA 229 - Pass Details

Date: 08 December 2019
Orbit: 994 x 1218 km, 63.4° (Epoch: 16 January)

Event Time Altitude Azimuth Distance (km) Brightness Sun altitude
Rises 15:49:56 0° 311° (NW) 3,908 7.4 -32.0°
Reaches altitude 10° 15:52:33 10° 312° (NW) 2,980 6.6 -32.4°
Enters shadow 15:59:01 75° 329° (NNW) 1,190 3.8 -33.4°
